Year,Month,Day,Hour,Minute,Value (Times are PST for temperature in C)
2022,03,22,09,15,31.60
2022,03,22,09,16,31.60
2022,03,22,09,17,31.60
2022,03,22,09,18,31.60
2022,03,22,09,19,31.60
2022,03,22,09,20,31.60
2022,03,22,09,21,31.60
2022,03,22,09,22,31.60
2022,03,22,09,23,31.60
2022,03,22,09,24,31.60
2022,03,22,09,25,31.70
2022,03,22,09,26,31.70
2022,03,22,09,27,31.70
2022,03,22,09,28,31.80
2022,03,22,09,29,31.80
2022,03,22,09,30,31.80
2022,03,22,09,31,31.80
2022,03,22,09,32,31.90
2022,03,22,09,33,31.90
2022,03,22,09,34,32.00
2022,03,22,09,35,32.00
2022,03,22,09,36,32.10
2022,03,22,09,37,32.20
2022,03,22,09,38,32.30
2022,03,22,09,39,32.40
2022,03,22,09,40,32.40
2022,03,22,09,41,32.50
2022,03,22,09,42,32.50
2022,03,22,09,43,32.60
2022,03,22,09,44,32.60
2022,03,22,09,45,32.60
2022,03,22,09,46,32.60
2022,03,22,09,47,32.60
2022,03,22,09,48,32.70
2022,03,22,09,49,32.70
2022,03,22,09,50,32.70
2022,03,22,09,51,32.70
2022,03,22,09,52,32.70
2022,03,22,09,53,32.70
2022,03,22,09,54,32.70
2022,03,22,09,55,32.80
2022,03,22,09,56,32.80
2022,03,22,09,57,32.80
2022,03,22,09,58,32.80
2022,03,22,09,59,32.80
2022,03,22,10,00,32.80
2022,03,22,10,01,32.70
2022,03,22,10,02,32.70
2022,03,22,10,03,32.70
2022,03,22,10,04,32.80
2022,03,22,10,05,32.70
2022,03,22,10,06,32.80
2022,03,22,10,07,32.80
2022,03,22,10,08,32.80
2022,03,22,10,09,32.80
2022,03,22,10,10,32.80
2022,03,22,10,11,32.80
2022,03,22,10,12,32.80
2022,03,22,10,13,32.80
2022,03,22,10,14,32.80
2022,03,22,10,15,32.80
2022,03,22,10,16,32.80
2022,03,22,10,17,32.80
2022,03,22,10,18,32.80
2022,03,22,10,19,32.80
2022,03,22,10,20,32.80
2022,03,22,10,21,32.80
2022,03,22,10,22,32.80
2022,03,22,10,23,32.80
2022,03,22,10,24,32.80
2022,03,22,10,25,32.80
2022,03,22,10,26,32.80
2022,03,22,10,27,32.80
2022,03,22,10,28,32.80
2022,03,22,10,29,32.80
2022,03,22,10,30,32.80
2022,03,22,10,31,32.80
2022,03,22,10,32,32.90
2022,03,22,10,33,32.80
2022,03,22,10,34,32.80
2022,03,22,10,35,32.90
2022,03,22,10,36,32.90
2022,03,22,10,37,32.90
2022,03,22,10,38,32.90
2022,03,22,10,39,32.90
2022,03,22,10,40,32.90
2022,03,22,10,41,32.90
2022,03,22,10,42,32.90
2022,03,22,10,43,32.90
2022,03,22,10,44,32.90
2022,03,22,10,45,32.90
2022,03,22,10,46,33.00
2022,03,22,10,47,33.00
2022,03,22,10,48,33.00
2022,03,22,10,49,33.00
2022,03,22,10,50,33.00
2022,03,22,10,51,33.00
2022,03,22,10,52,33.00
2022,03,22,10,53,32.90
2022,03,22,10,54,32.90
2022,03,22,10,55,32.90
2022,03,22,10,56,32.90
2022,03,22,10,57,32.90
2022,03,22,10,58,32.90
2022,03,22,10,59,32.90
2022,03,22,11,00,32.90
2022,03,22,11,01,32.90
2022,03,22,11,02,33.00
2022,03,22,11,03,33.00
2022,03,22,11,04,33.00
2022,03,22,11,05,33.00
2022,03,22,11,06,33.00
2022,03,22,11,07,33.10
2022,03,22,11,08,33.10
2022,03,22,11,09,33.10
2022,03,22,11,10,33.10
2022,03,22,11,11,33.10
2022,03,22,11,12,33.10
2022,03,22,11,13,33.10
2022,03,22,11,14,33.10
2022,03,22,11,15,33.10
2022,03,22,11,16,33.10
2022,03,22,11,17,33.10
2022,03,22,11,18,33.10
2022,03,22,11,19,33.10
2022,03,22,11,20,33.10
2022,03,22,11,21,33.10
2022,03,22,11,22,33.10
2022,03,22,11,23,33.10
2022,03,22,11,24,33.10
2022,03,22,11,25,33.10
2022,03,22,11,26,33.10
2022,03,22,11,27,33.10
2022,03,22,11,28,33.10
2022,03,22,11,29,33.20
2022,03,22,11,30,33.20
2022,03,22,11,31,33.20
2022,03,22,11,32,33.20
2022,03,22,11,33,33.20
2022,03,22,11,34,33.20
2022,03,22,11,35,33.20
2022,03,22,11,36,33.20
2022,03,22,11,37,33.20
2022,03,22,11,38,33.20
2022,03,22,11,39,33.20
2022,03,22,11,40,33.20
2022,03,22,11,41,33.20
2022,03,22,11,42,33.20
2022,03,22,11,43,33.20
2022,03,22,11,44,33.10
2022,03,22,11,45,33.10
2022,03,22,11,46,33.10
2022,03,22,11,47,33.10
2022,03,22,11,48,33.10
2022,03,22,11,49,33.10
2022,03,22,11,50,33.10
2022,03,22,11,51,33.10
2022,03,22,11,52,33.10
2022,03,22,11,53,33.10
2022,03,22,11,54,33.00
2022,03,22,11,55,33.10
2022,03,22,11,56,33.10
2022,03,22,11,57,33.10
2022,03,22,11,58,33.10
2022,03,22,11,59,33.10
2022,03,22,12,00,33.10
2022,03,22,12,01,33.10
2022,03,22,12,02,33.10
2022,03,22,12,03,33.10
2022,03,22,12,04,33.10
2022,03,22,12,05,33.10
2022,03,22,12,06,33.10
2022,03,22,12,07,33.10
2022,03,22,12,08,33.10
2022,03,22,12,09,33.10
2022,03,22,12,10,33.10
2022,03,22,12,11,33.10
2022,03,22,12,12,33.10
2022,03,22,12,13,33.10
2022,03,22,12,14,33.10
2022,03,22,12,15,33.10
2022,03,22,12,16,33.10
2022,03,22,12,17,33.10
2022,03,22,12,18,33.10
2022,03,22,12,19,33.10
2022,03,22,12,20,33.10
2022,03,22,12,21,33.10
2022,03,22,12,22,33.10
2022,03,22,12,23,33.10
2022,03,22,12,24,33.10
2022,03,22,12,25,33.10
2022,03,22,12,26,33.10
2022,03,22,12,27,33.10
2022,03,22,12,28,33.20
2022,03,22,12,29,33.20
2022,03,22,12,30,33.20
2022,03,22,12,31,33.20
2022,03,22,12,32,33.20
2022,03,22,12,33,33.20
2022,03,22,12,34,33.20
2022,03,22,12,35,33.20
2022,03,22,12,36,33.20
2022,03,22,12,37,33.20
2022,03,22,12,38,33.20
2022,03,22,12,39,33.20
2022,03,22,12,40,33.10
2022,03,22,12,41,33.10
2022,03,22,12,42,33.10
2022,03,22,12,43,33.10
2022,03,22,12,44,33.20
2022,03,22,12,45,33.20
2022,03,22,12,46,33.20
2022,03,22,12,47,33.20
2022,03,22,12,48,33.20
2022,03,22,12,49,33.20
2022,03,22,12,50,33.20
2022,03,22,12,51,33.20
2022,03,22,12,52,33.10
2022,03,22,12,53,33.10
2022,03,22,12,54,33.10
2022,03,22,12,55,33.10
2022,03,22,12,56,33.20
2022,03,22,12,57,33.20
2022,03,22,12,58,33.20
2022,03,22,12,59,33.10
2022,03,22,13,00,33.10
2022,03,22,13,01,33.20
2022,03,22,13,02,33.20
2022,03,22,13,03,33.10
2022,03,22,13,04,33.20
2022,03,22,13,05,33.20
2022,03,22,13,06,33.20
2022,03,22,13,07,33.20
2022,03,22,13,08,33.20
2022,03,22,13,09,33.20
2022,03,22,13,10,33.20
2022,03,22,13,11,33.20
2022,03,22,13,12,33.20
2022,03,22,13,13,33.20
2022,03,22,13,14,33.20
2022,03,22,13,15,33.20
2022,03,22,13,16,33.30
2022,03,22,13,17,33.30
2022,03,22,13,18,33.30
2022,03,22,13,19,33.30
2022,03,22,13,20,33.30
2022,03,22,13,21,33.30
2022,03,22,13,22,33.30
2022,03,22,13,23,33.30
2022,03,22,13,24,33.30
2022,03,22,13,25,33.30
2022,03,22,13,26,33.30
2022,03,22,13,27,33.30
2022,03,22,13,28,33.30
2022,03,22,13,29,33.40
2022,03,22,13,30,33.40
2022,03,22,13,31,33.40
2022,03,22,13,32,33.40
2022,03,22,13,33,33.40
2022,03,22,13,34,33.40
2022,03,22,13,35,33.40
2022,03,22,13,36,33.40
2022,03,22,13,37,33.40
2022,03,22,13,38,33.40
2022,03,22,13,39,33.50
2022,03,22,13,40,33.50
2022,03,22,13,41,33.50
2022,03,22,13,42,33.50
2022,03,22,13,43,33.50
2022,03,22,13,44,33.50
2022,03,22,13,45,33.50
2022,03,22,13,46,33.50
2022,03,22,13,47,33.50
2022,03,22,13,48,33.50
2022,03,22,13,49,33.50
2022,03,22,13,50,33.60
2022,03,22,13,51,33.60
2022,03,22,13,52,33.60
2022,03,22,13,53,33.50
2022,03,22,13,54,33.60
2022,03,22,13,55,33.50
2022,03,22,13,56,33.60
2022,03,22,13,57,33.60
2022,03,22,13,58,33.60
2022,03,22,13,59,33.60
2022,03,22,14,00,33.60
2022,03,22,14,01,33.60
2022,03,22,14,02,33.60
2022,03,22,14,03,33.60
2022,03,22,14,04,33.60
2022,03,22,14,05,33.60
2022,03,22,14,06,33.60
2022,03,22,14,07,33.60
2022,03,22,14,08,33.60
2022,03,22,14,09,33.60
2022,03,22,14,10,33.60
2022,03,22,14,11,33.60
2022,03,22,14,12,33.60
2022,03,22,14,13,33.60
2022,03,22,14,14,33.60
2022,03,22,14,15,33.60
2022,03,22,14,16,33.60
2022,03,22,14,17,33.60
2022,03,22,14,18,33.60
2022,03,22,14,19,33.60
2022,03,22,14,20,33.60
2022,03,22,14,21,33.60
2022,03,22,14,22,33.60
2022,03,22,14,23,33.60
2022,03,22,14,24,33.60
2022,03,22,14,25,33.60
2022,03,22,14,26,33.60
2022,03,22,14,27,33.60
2022,03,22,14,28,33.60
2022,03,22,14,29,33.60
2022,03,22,14,30,33.60
2022,03,22,14,31,33.60
2022,03,22,14,32,33.60
2022,03,22,14,33,33.60
2022,03,22,14,34,33.60
2022,03,22,14,35,33.60
2022,03,22,14,36,33.60
2022,03,22,14,37,33.70
2022,03,22,14,38,33.70
2022,03,22,14,39,33.70
2022,03,22,14,40,33.60
2022,03,22,14,41,33.60
2022,03,22,14,42,33.60
2022,03,22,14,43,33.60
2022,03,22,14,44,33.60
2022,03,22,14,45,33.60
2022,03,22,14,46,33.60
2022,03,22,14,47,33.70
